Regional Weather Roundup
Issued by NWS

Home | Current Version | Previous Version | Text Only | Print | Product List | Glossary Off
Versions: 1 2 3 4 5 6 7 8 9 10 11 12 13 14 15 16 17 18 19 20 21 22 23 24 25 26 27

000
ASUS45 KBOU 250407
RWRCO

WEATHER ROUNDUP FOR COLORADO
NATIONAL WEATHER SERVICE DENVER/BOULDER CO
1000 PM MDT MON JUL 24 2017

NOTE: "FAIR" INDICATES FEW OR NO CLOUDS BELOW 12000 FEET WITH NO
SIGNIFICANT WEATHER AND/OR OBSTRUCTIONS TO VISIBILITY.

COZ001>005-013-030-031-250500-
...NORTHWEST COLORADO...

CITY           SKY/WX    TMP DP  RH WIND       PRES   REMARKS
CRAIG          FAIR      67  51  56 CALM      30.12R
HAYDEN         FAIR     N/A N/A N/A W5        30.15R
MEEKER         FAIR      73  52  47 CALM      30.14R
RABBIT EARS PA FAIR      61  36  39 N6        30.51S
STEAMBOAT SPGS FAIR      68  46  44 E3        30.18R
WALDEN         FAIR      66  36  32 N3        30.31R
$$

COZ006>008-011-250500-
...WEST CENTRAL VALLEYS...

CITY           SKY/WX    TMP DP  RH WIND       PRES   REMARKS
GRAND JUNCTION FAIR      83  50  31 E12       30.02R
MONTROSE       LGT RAIN  75  54  47 CALM      30.17R
EAGLE          LGT RAIN  71  55  56 SE8       30.23R
RIFLE          MOCLDY    75  52  44 S20G26    30.11R
DELTA          CLOUDY    78  54  43 E25       30.15R
NUCLA          CLOUDY    64  57  77 NE9       30.23F
$$

COZ017>023-064>068-250500-
...SOUTHWEST COLORADO...

CITY           SKY/WX    TMP DP  RH WIND       PRES   REMARKS
DURANGO        LGT RAIN  61  57  87 SW10      30.32R
CORTEZ         RAIN      64  61  90 NE10      30.22R FOG
PAGOSA SPRINGS LGT RAIN  61  56  83 N5        30.36F
TELLURIDE      LGT RAIN  60  51  72 CALM      30.45R
WOLF CREEK PAS NOT AVBL
$$

COZ009-010-012-014-032>034-037-058>063-250500-
...CENTRAL COLORADO...

CITY           SKY/WX    TMP DP  RH WIND       PRES   REMARKS
ASPEN          CLOUDY    65  48  54 SE13      30.31S
BUENA VISTA    FAIR      66  47  49 W5        30.34S
COPPER MTN     FAIR      59  39  47 S14       30.65R
BERTHOUD PASS  FAIR      48  34  57 S14G20    30.69R
COTTONWOOD PAS FAIR      63  43  48 CALM      30.50R
GUNNISON       MOCLDY    64  49  57 CALM      30.33R
KREMMLING      MOCLDY    79  39  24 S3        30.25R
LEADVILLE      FAIR      58  39  49 SE6       30.45R
MONARCH PASS   CLOUDY    50  43  76 CALM      30.76R
SALIDA         FAIR      69  50  50 W9        30.38R
SUNLIGHT       CLOUDY    52  43  71 S8        30.57R
WILKERSON PASS MOCLDY    54  37  54 SW9       30.63R
$$

COZ069>075-250500-
...SAN LUIS VALLEY/SANGRE DE CRISTO MOUNTAINS...

CITY           SKY/WX    TMP DP  RH WIND       PRES   REMARKS
ALAMOSA        FAIR      62  52  69 SW6       30.30R
DEL NORTE      CLOUDY    65  48  53 NW3       30.35R
LA VETA PASS   NOT AVBL
SAGUACHE         N/A    N/A N/A N/A MISG        N/A
$$

COZ035-036-038>040-250500-
...NORTHERN COLORADO FRONT RANGE...

CITY           SKY/WX    TMP DP  RH WIND       PRES   REMARKS
DENVER INTL AP MOCLDY    80  44  27 SW12      30.06R
DMNS CITY PARK   N/A     78  45  31 S6G12     30.06R
AURORA         MOCLDY    77  46  34 S9        30.10R
FRONT RANGE AP FAIR      77  45  31 S8        30.09R
ERIE MUNI ARPT FAIR      75  46  36 SW5       30.03R
BOULDER MUN AP FAIR      79  45  29 W6        30.04R
CENTENNIAL     MOCLDY    78  44  29 SW14      30.11R
BROOMFIELD     FAIR      73  43  33 W3        30.08R
FORT COLLINS   FAIR      79  52  38 SW3       30.03R
LONGMONT       FAIR      71  50  46 SW6       30.04R
$$

COZ041-046-047-076>085-087-088-250500-
...PIKES PEAK/PALMER DIVIDE AND SOUTHERN FOOTHILLS...

CITY           SKY/WX    TMP DP  RH WIND       PRES   REMARKS
COLO. SPRINGS  FAIR      74  49  41 NE12      30.17R
A. F. ACADEMY  FAIR      66  48  52 N6        30.18R
SCHRIEVER AFB  FAIR      73  49  41 S7        30.18R
CHEYENNE MTN   MOCLDY    77  40  26 SW7       30.17R
ELLICOTT       NOT AVBL
FALCON           N/A     69  45  41 S12       30.24R
FORT CARSON    FAIR      77  49  36 NE8       30.13R
LIMON          FAIR      71  54  54 SE8       30.11R
MONUMENT HILL  FAIR      63  46  55 SW7       30.24S
CANON CITY     CLEAR     79  52  38 W9        30.09S
WALSENBURG     FAIR      75  48  38 SW8       30.15R
TRINIDAD       MOCLDY    77  48  35 CALM      30.15R
$$

COZ042>045-048>051-090-091-250500-
...NORTHEAST COLORADO...

CITY           SKY/WX    TMP DP  RH WIND       PRES   REMARKS
GREELEY ARPT   FAIR      76  54  46 N6        30.00R
AKRON          FAIR      82  54  37 S15       30.04R
BURLINGTON     FAIR      77  61  57 S12       30.05R
WRAY           NOT AVBL
YUMA           FAIR      77  50  38 SE7       30.02R
STERLING       FAIR      81  55  41 SE8       29.98R
HOLYOKE        FAIR      79  63  57 SE13      30.01S
FORT MORGAN    FAIR      79  46  31 SE8       30.02R
$$

COZ086-089-092>099-250500-
...SOUTHEAST COLORADO...

CITY           SKY/WX    TMP DP  RH WIND       PRES   REMARKS
PUEBLO         FAIR      83  47  28 N7        30.01R
LA JUNTA       FAIR      83  60  45 SE17      30.01R
LAMAR          FAIR      81  62  52 S21G29    30.00R
SPRINGFIELD      N/A     73  62  68 S14       30.09R
$$




USA.gov is the U.S. government's official web portal to all federal, state and local government web resources and services.